OBJECT AR

基本信息
目录编号:
61774
目录名称:
OBJECT AR
国际标识:
2024-199AR
轨道中心:
EARTH
物体状态:
在轨
发射日期:
2024-11-04 UTC
国别:
(TBD)
轨道信息
数据来源: 国际轨道数据
星历时间: 2026-09-05T13:54:11+0800
半长轴: 6736.545km
偏心率: 0.0004244
轨道倾角: 97.271°
近地点辐角: 24.249°
升交点赤经: 127.398°
平近点角: 335.897°
近地点: 355.549km
远地点: 361.267km
周期: 91.710分钟
每日圈数: 15.701713
详细信息
发射场:
VOSTO
轨道高度:
LEO
数据来源:
AOE Integration Group
参考系:
TEME
时间系统:
UTC
历元类型:
SGP4
2D轨道图
3D轨道图
轨道高度分析图
轨道倾角分析图
轨道综合分析图
查看轨道综合分析图